sat.trackr.live / text

‹ back to catalog

STARLINK-1215

NORAD 45225 · 2020-012AZ

PAYLOAD ACTIVE UNKNOWN

§ Identity

Operator
Country
US
Launch date
2020-02-17
Launch site
AFETR
Launch vehicle
Mass (kg)
RCS (m²)

Purposes: comms

External: N2YO · Heavens-Above · Gunter

§ Orbital elements

Epoch: 2026-05-25T00:22:55.207200Z

Period
93.88 min
Inclination
53.1582°
Eccentricity
0.0002133
Mean motion
15.33798147 rev/d
Perigee alt
463.0 km
Apogee alt
466.0 km
Semi-major
6,842.6 km
B*
1.1806e-3
RAAN
3.1385°
Arg perigee
167.4587°
Mean anomaly
192.6469°
Rev number
34,717

§ Raw data

STARLINK-12151 45225U 20012AZ  26145.01591675  .00038965  00000+0  11806-2 0  99932 45225  53.1582   3.1385 0002133 167.4587 192.6469 15.33798147347178

JSON: /api/v1/satellites/45225 · /tle

For live sub-satellite position, see the globe view (requires WebGL).

§ Visibility from observer

Set your observer location to see the next 7 days of passes ≥ 10°. The values pass through the URL so the page stays shareable.

No JS? Fill the form by hand. The geolocation button needs JavaScript.